Date,TemperatureHighF,TemperatureAvgF,TemperatureLowF,DewpointHighF,DewpointAvgF,DewpointLowF,HumidityHigh,HumidityAvg,HumidityLow,PressureMaxIn,PressureMinIn,WindSpeedMaxMPH,WindSpeedAvgMPH,GustSpeedMaxMPH,PrecipitationSumIn
2013-11-1,45.7,43.8,42.2,42.6,40.3,37.8,92,87,84,29.75,29.32,17,8,24,0.06
2013-11-2,44.2,40.4,37.8,40.1,37.4,35.7,94,89,79,30.17,29.75,10,4,13,0.04
2013-11-3,51.4,41.2,31.1,39.4,35.3,29.5,95,81,50,30.33,30.17,4,1,9,0.01
2013-11-4,55.8,48.7,42.6,44.4,39.8,36.2,83,72,57,30.27,30.08,9,3,17,0.00
2013-11-5,55.2,50.7,46.6,49.5,46.7,43.8,93,86,75,30.26,29.91,4,1,15,0.05
2013-11-6,55.4,44.6,34.3,53.0,40.0,26.0,93,84,65,30.16,29.74,15,7,22,0.44
2013-11-7,41.1,35.5,29.7,32.1,29.1,25.7,86,77,65,30.26,30.16,12,5,16,0.00
2013-11-8,46.7,37.6,25.8,34.4,30.4,23.5,93,76,61,30.34,29.87,6,2,15,0.01
2013-11-9,52.5,47.2,40.7,40.1,36.0,26.4,77,65,54,30.08,29.79,23,14,43,0.00
2013-11-10,46.4,41.7,36.9,33.1,29.7,27.0,71,62,50,30.34,30.08,14,9,20,0.00
2013-11-11,44.2,34.1,23.1,33.9,27.0,16.4,91,76,65,30.56,30.07,13,7,17,0.13
2013-11-12,29.9,24.6,19.3,18.9,16.5,13.2,83,72,52,30.74,30.56,13,7,18,0.00
2013-11-13,40.2,30.7,20.3,22.5,17.5,12.7,80,60,35,30.61,30.13,23,12,27,0.00
2013-11-14,45.3,38.9,32.4,29.9,25.4,18.7,73,58,49,30.12,29.92,20,9,25,0.00
2013-11-15,52.5,42.4,36.7,34.5,30.9,26.9,86,64,47,29.96,29.90,11,3,16,0.00
2013-11-16,57.9,49.3,37.7,54.3,46.1,33.0,93,89,80,29.92,29.53,14,4,22,0.30
2013-11-17,63.8,52.3,40.3,59.7,48.7,34.9,95,87,77,29.66,29.03,24,10,34,1.47
2013-11-18,40.4,34.6,27.7,35.2,26.9,21.8,82,73,62,30.27,29.67,20,12,28,0.00
2013-11-19,40.4,30.2,21.3,28.6,24.1,18.0,92,79,56,30.41,30.28,4,1,9,0.00
2013-11-20,42.2,36.2,30.0,34.5,29.4,26.3,93,77,54,30.30,30.12,5,2,11,0.09
2013-11-21,44.2,40.7,36.4,39.7,37.6,34.5,95,89,82,30.25,30.13,7,2,10,0.00
2013-11-22,39.1,32.5,25.3,36.1,26.8,19.1,91,80,66,30.49,30.24,12,7,17,0.00
2013-11-23,25.4,19.1,13.2,19.4,9.3,4.6,79,65,55,30.75,30.44,19,11,29,0.00
2013-11-24,25.1,18.2,10.2,10.7,6.9,3.6,82,62,42,30.75,30.34,16,8,22,0.00
2013-11-25,30.2,26.6,22.0,25.7,20.1,9.8,88,77,55,30.34,30.07,19,11,25,0.00
2013-11-26,31.6,26.0,13.7,26.3,18.2,5.3,85,73,55,30.22,30.05,16,7,22,0.00
2013-11-27,24.4,18.0,9.7,14.7,10.0,4.3,82,71,58,30.29,30.21,12,6,17,0.00
2013-11-28,27.1,23.0,12.0,18.4,15.0,8.9,89,71,62,30.54,30.21,10,3,13,0.00
2013-11-29,32.0,22.2,8.6,22.6,15.6,5.2,89,76,54,30.68,30.41,5,1,8,0.00
2013-11-30,44.8,33.6,27.2,32.8,26.8,22.2,92,77,61,30.41,30.06,11,2,16,0.00